Regional Weather Roundup
Issued by NWS

Home | Current Version | Previous Version | Text Only | Print | Product List | Glossary Off
Versions: 1 2 3 4 5 6 7 8 9 10 11 12 13 14 15 16 17 18 19 20 21 22 23 24 25 26 27 28 29 30 31 32 33 34 35 36 37 38 39 40 41 42 43 44 45 46 47 48 49 50

000
ASUS43 KMKX 100511
RWRWI

WISCONSIN REGIONAL WEATHER ROUNDUP
NATIONAL WEATHER SERVICE MILWAUKEE/SULLIVAN WI
1100 PM CST FRI DEC 09 2016

NOTE: "FAIR" INDICATES FEW OR NO CLOUDS BELOW 12,000 FEET WITH NO
SIGNIFICANT WEATHER AND/OR OBSTRUCTIONS TO VISIBILITY.

WIZ001-002-006>008-014>016-023>028-100600-
NORTHWEST WISCONSIN

CITY           SKY/WX    TMP DP  RH WIND       PRES   REMARKS
SUPERIOR ARPT  CLOUDY    10  -1  62 NW8       30.49S WCI  -3
ASHLAND        LGT SNOW  10   6  84 W5        30.46S FOG     WCI   2
HAYWARD        CLOUDY    10   2  69 VRB3      30.42S
SIREN          CLOUDY    11   4  71 CALM      30.46S
CUMBERLAND     CLOUDY    12   1  62 NW8       30.43R WCI   1
RICE LAKE      CLOUDY    13   7  77 W7        30.45S WCI   2
CHETEK         CLOUDY    13   6  72 W5        30.45S WCI   5
LADYSMITH      CLOUDY    14   7  72 W10       30.43R WCI   1
EAU CLAIRE     CLOUDY    14   9  80 W6        30.45S WCI   5
MENOMONIE      CLOUDY    15   6  68 W10       30.47R WCI   2
NEW RICHMOND   CLOUDY    13   4  67 W9        30.47R WCI   0
OSCEOLA        CLOUDY    13   5  71 W10       30.51R WCI   0
$$

WIZ003>005-009-010-017-018-100600-
NORTH CENTRAL WISCONSIN

CITY           SKY/WX    TMP DP  RH WIND       PRES   REMARKS
MANITOWISH WTR CLOUDY     8   1  73 NW7       30.35S WCI  -4
ARBOR VITAE    CLOUDY    11   5  75 NW6       30.35S WCI   2
WOODRUFF       CLOUDY    11   5  75 NW6       30.35S WCI   2
RHINELANDER    CLOUDY    13   5  70 NW8       30.35R WCI   2
EAGLE RIVER    CLOUDY    10   2  71 NW6       30.34S WCI   0
LAND O LAKES   CLOUDY    10   1  69 W6        30.36S WCI   0
PHILLIPS       CLOUDY    10   5  80 CALM      30.37S
TOMAHAWK       CLOUDY    12   8  81 NW3       30.37S
MEDFORD        LGT SNOW  13   9  85 W5        30.37S WCI   5
MERRILL        CLOUDY    15   9  76 W8        30.38S WCI   4
$$

WIZ029-030-035-036-043>047-100600-
CENTRAL WISCONSIN

CITY           SKY/WX    TMP DP  RH WIND       PRES   REMARKS
WAUSAU         FLURRIES  14   9  80 W6        30.39S WCI   5
MOSINEE        LGT SNOW  16  12  86 W7        30.40F WCI   6
MARSHFIELD     FLURRIES  15   8  73 W8        30.39F WCI   4
STEVENS POINT  CLOUDY    15   5  66 W6        30.42S WCI   6
WAUPACA        CLOUDY    19  12  74 CALM      30.44S
WAUTOMA        FLURRIES  17  11  77 W10       30.46R WCI   5
WISC RAPIDS    CLOUDY    17   8  67 W7        30.44S WCI   8
CAMP DOUGLAS   FLURRIES  16  10  79 W9        30.45S WCI   4
$$

WIZ011>013-019>022-031-037>040-048>050-100600-
NORTHEAST WISCONSIN

CITY           SKY/WX    TMP DP  RH WIND       PRES   REMARKS
ANTIGO         CLOUDY    13   8  78 W8        30.35S WCI   2
SHAWANO        CLOUDY    19  10  65 W7        30.43S WCI  10
OCONTO         CLOUDY    19  10  66 W9        30.42S WCI   8
STURGEON BAY   CLOUDY    20   7  57 W10       30.41S WCI   9
GREEN BAY      MOCLDY    19  11  70 W9        30.44R WCI   8
MANITOWOC      CLOUDY    20  10  65 W8        30.44S WCI  10
APPLETON       CLOUDY    19   9  63 NW7       30.41S WCI  10
CLINTONVILLE   CLOUDY    19  10  68 W8        30.43S WCI   9
OSHKOSH        CLOUDY    19  10  68 W5        30.43F WCI  12
$$

WIZ032>034-041-042-053>061-100600-
SOUTHWEST WISCONSIN

CITY           SKY/WX    TMP DP  RH WIND       PRES   REMARKS
LA CROSSE      MOCLDY    18  10  71 W10       30.50S WCI   6
SPARTA         CLOUDY    17  11  80 W5        30.48S WCI   9
VIROQUA        CLOUDY    15  11  85 W7        30.44S WCI   5
BOSCOBEL       CLOUDY    19  12  74 SW5       30.51S WCI  12
PRAIRIE DU CHI CLOUDY    19  13  78 W5        30.52S WCI  12
PLATTEVILLE    CLOUDY    17  14  88 W5        30.49S WCI   9
$$

WIZ056-057-062-063-064-067-068-100600-
SOUTH CENTRAL WISCONSIN

CITY           SKY/WX    TMP DP  RH WIND       PRES   REMARKS
REEDSBURG      CLOUDY    17  11  76 W7        30.46S WCI   8
BARABOO/DELLS  CLOUDY    17  11  75 W5        30.45S WCI  10
LONE ROCK      CLOUDY    19  10  68 W10       30.50S WCI   7
MINERAL POINT  CLOUDY    19  14  79 W8        30.46S WCI   9
MADISON        CLOUDY    18  11  74 W6        30.47R WCI  10
MIDDLETON      CLOUDY    19  13  77 W6        30.47S WCI  11
WATERTOWN      CLOUDY    19  13  79 W6        30.46S WCI  10
MONROE         CLOUDY    18  14  86 W8        30.47R WCI   7
JANESVILLE     CLOUDY    19  14  79 W6        30.48S WCI  11
$$

WIZ051-052-058>065-066-070>072-100600-
SOUTHEAST WISCONSIN

CITY           SKY/WX    TMP DP  RH WIND       PRES   REMARKS
MILWAUKEE      PTCLDY    20  11  68 W6        30.47S WCI  12
WAUKESHA       MOCLDY    18  12  79 W5        30.47R WCI  11
MILWAUKEE/TIMM PTCLDY    19  12  73 W5        30.47S WCI  13
RACINE         CLOUDY    19  11  70 W3        30.49S
BURLINGTON     CLEAR     19  16  90 W5        30.47F WCI  12
KENOSHA        MOCLDY    16  11  80 W6        30.48S WCI   7
FOND DU LAC    PTCLDY    17   8  67 W3        30.45S
SHEBOYGAN      CLOUDY    18  11  74 SW5       30.44S WCI  11
WEST BEND      CLOUDY    19  12  73 W6        30.44S WCI  11
JUNEAU         CLOUDY    16  11  82 SW6       30.46S WCI   7
$$

LSZ147-162-100600-
LAKE SUPERIOR

STATION/POSITION TIME  TEMP    WIND        PRES    WAVE
                       AIR SEA DIR/SP/G            HT/PER
                 (UTC) (F)     (DEG/KT/KT) (MB)    (FT/S)
DEVILS ISLAND    0400   11     260/ 10/ 16 1032.4F
PORT WING        0440   12     320/ 15/ 18 1031.5S
SAXON HARBOR     0440   12     260/  5/  9 1031.2R
$$

LMZ867-665-643>646-100600-
LAKE MICHIGAN

STATION/POSITION TIME  TEMP    WIND        PRES    WAVE
                       AIR SEA DIR/SP/G            HT/PER
                 (UTC) (F)     (DEG/KT/KT) (MB)    (FT/S)
CHAMBERS ISLAND  0440   20     270/  8/ 13 1028.8F
NORTHPORT PIER   0452   21     290/  9/ 19 1029.1S
SISTER BAY       0450   20     330/ 20/ 24   N/A
ALGOMA LAKESHORE 0351          310/ 12/ 15   N/A
KEWAUNEE LAKESHO 0448   20     280/  8/ 12 1029.6R
SHEBOYGAN LAKESH 0500   21     260/  5/  6 1032.0S
PORT WASHINGTON  0440   19     290/  2/  5 1032.5R
KENOSHA   LAKESH 0500   20     270/  6/  9 1032.2
$$

TC  - TEMPERATURE IN CELSIUS
VSB - VISIBILITY IN STATUTE MILES
WCI - WIND CHILL INDEX
HX  - HEAT INDEX




USA.gov is the U.S. government's official web portal to all federal, state and local government web resources and services.